Simultaneous Nadir Overpasses (SNOs) Predictions

Prediction of SNOs between AQUA and GOES-15 Satellite Orbit:

Table of predicted SNOs for the next 14.0 days since TLE Epoch: 8/6/2022
Index Date Time (AQUA) AQUA Lat,Lon GOES-15 Lat,Lon Distance(km) Time Diff (sec)
1 08/06/2022 10:20:52 0.88,-130.18 0.40,-128.03 244.62 80
2 08/08/2022 10:08:14 0.19,-127.11 0.39,-128.06 107.77 80
3 08/08/2022 22:29:31 -1.31,-132.27 -0.40,-128.04 480.73 80
4 08/10/2022 09:55:36 -0.51,-124.04 0.38,-128.08 459.67 80
5 08/10/2022 22:16:53 -0.61,-129.20 -0.39,-128.06 128.71 80
6 08/12/2022 22:04:14 0.04,-126.12 -0.39,-128.08 223.50 80
7 08/13/2022 10:25:22 1.06,-131.24 0.40,-128.12 354.73 80
8 08/15/2022 10:12:43 0.40,-128.17 0.40,-128.14 2.59 80
9 08/17/2022 10:00:04 -0.27,-125.09 0.39,-128.16 349.34 80
10 08/17/2022 22:21:20 -0.83,-130.25 -0.40,-128.13 240.56 80
11 08/19/2022 22:08:41 -0.21,-127.16 -0.40,-128.14 111.02 80
